Weather Roundup
Issued by NWS Springfield, MO

Home | Current Version | Previous Version | Text Only | Print | Product List | Glossary On
Versions: 1 2 3 4 5 6 7 8 9 10 11 12 13 14 15 16 17 18 19 20 21 22 23 24 25 26 27 28 29 30 31 32 33 34 35 36 37 38 39 40 41 42 43 44 45 46 47 48 49 50
000
NZUS99 KSGF 240557
HRRSGF

HOURLY WEATHER
NATIONAL WEATHER SERVICE SPRINGFIELD MO
100 AM CDT TUE MAY 24 2016

......SGF CWA......

CITY           SKY/WX    TMP DP  RH WIND       PRES   REMARKS
SPRINGFIELD    CLEAR     61  59  93 S5        29.95R FOG
6HR MIN TEMP:  61; 6HR MAX TEMP:  66; 6HR PCP: TRACE;

JOPLIN         CLOUDY    64  61  90 S7        29.92S
6HR MIN TEMP:  62; 6HR MAX TEMP:  67; 6HR PCP: TRACE;

WEST PLAINS    CLEAR     62  57  83 CALM      29.99R
6HR MIN TEMP:  62; 6HR MAX TEMP:  74; 6HR PCP: TRACE;

ROLLA          CLOUDY    66  57  72 S5        29.94S
6HR MIN TEMP:  65; 6HR MAX TEMP:  73;


......SURROUNDING SGF CWA......

CITY           SKY/WX    TMP DP  RH WIND       PRES   REMARKS
CHANUTE        CLOUDY    66  62  87 S8        29.90S
PARSONS        CLOUDY    67  64  90 S5        29.91S
COFFEYVILLE    CLOUDY    66  63  90 SE7       29.90F
EMPORIA        CLOUDY    64  61  90 SE10      29.88F
HARRISON AR    PTCLDY    62  60  93 CALM      29.97R

......KANSAS AND MISSOURI......

CITY           SKY/WX    TMP DP  RH WIND       PRES   REMARKS
KANSAS CTY INT PTCLDY    63  60  90 S10       29.90F
SEDALIA        CLOUDY    65  60  84 S5        29.95R
ST JOSEPH      CLOUDY    66  61  84 S10       29.88F
ST LOUIS       CLOUDY    72  53  51 S5        29.96R
WICHITA        CLOUDY    69  65  86 SE15      29.81F
TOPEKA         PTCLDY    65  61  87 SE6       29.87F
OLATHE         MOCLDY    61  59  93 S3        29.92R

......TENNESSEE......

CITY           SKY/WX    TMP DP  RH WIND       PRES   REMARKS
MEMPHIS        NOT AVBL
NASHVILLE      CLEAR     60  52  74 CALM      30.02S

......ARKANSAS.......

CITY           SKY/WX    TMP DP  RH WIND       PRES   REMARKS
FAYETTEVILLE   CLOUDY    60  60 100 CALM      29.96R
FT SMITH       CLOUDY    68  64  87 NE5       29.93R
LITTLE ROCK    PTCLDY    69  60  73 S3        29.96R

......OKLAHOMA.......

CITY           SKY/WX    TMP DP  RH WIND       PRES   REMARKS
TULSA          CLOUDY    70  67  90 SE9       29.86F
PONCA CITY     CLOUDY    70  65  84 SE14      29.84F
MCALESTER      CLOUDY    72  66  81 SE5       29.91F
OKLAHOMA CITY  CLOUDY    70  69  97 SE12      29.87F

......IOWA............

CITY           SKY/WX    TMP DP  RH WIND       PRES   REMARKS
DES MOINES     NOT AVBL
QUAD CITIES    CLOUDY    68  48  48 CALM      29.91R

......ILLINOIS........

CITY           SKY/WX    TMP DP  RH WIND       PRES   REMARKS
QUINCY         CLOUDY    65  53  65 SE5       29.94R
CHICAGO        PTCLDY    60  43  53 S6        29.94R



USA.gov is the U.S. government's official web portal to all federal, state and local government web resources and services.